[[{"header":{"parameterUnit":"m.s-1","parameterCategory":1,"la1":30.2991,"la2":30.254,"lo1":-89.0895,"lo2":-89.0444,"dy":0.0017,"dx":0.0017,"nx":28,"ny":28,"refTime":"2023-09-26T03:00:00:Z","depth":0,"parameterNumber":2,"parameterNumberName":"U-component_of_WINDS"},"data":[0,0,0,0,0,0,0,0,0,0,0,0,0,0,0,0,0,0,0,0,0,0,0,0,0,0,0,0,0,0,0,0,0,0,0,0,0,0,0,0,0,0,0,0,0,0,0,0,0,0,0,0,0,0,0,0,0,0,-1.108,-1.108,0,-1.1083,-1.1083,-1.1083,-1.1059,-1.1058,-1.1057,-1.1057,-1.1062,-1.1063,-1.1064,0,0,0,0,0,0,0,0,0,0,0,0,0,-1.106,-1.1061,-1.108,-1.108,-1.108,-1.1083,-1.1083,-1.1083,-1.1059,-1.1058,-1.1057,-1.1056,-1.1062,-1.1063,-1.1064,0,0,0,0,0,0,0,0,0,0,0,0,0,-1.1067,-1.1061,-1.108,-1.1069,-1.1068,-1.1083,-1.1083,-1.1083,-1.1059,-1.1058,-1.1057,-1.1056,-1.1062,-1.1063,-1.1064,-1.1091,0,0,-1.1067,-1.1068,0,0,0,0,0,0,0,0,-1.1066,-1.1067,-1.107,-1.1069,-1.1068,-1.1069,-1.1078,-1.1086,-1.1059,-1.1062,-1.1057,-1.1056,-1.1066,-1.1066,-1.1069,-1.1091,-1.1092,-1.1067,-1.1068,-1.1069,-1.1069,0,0,0,0,0,0,0,-1.1066,-1.1067,-1.1081,-1.107,-1.1069,-1.1065,-1.1065,-1.1079,-1.107,-1.1062,-1.106,-1.1061,-1.1065,-1.1068,-1.1069,-1.1092,-1.1067,-1.1068,-1.1069,-1.107,-1.1142,-1.1143,0,0,0,0,0,0,-1.1066,-1.1067,-1.1081,-1.1081,-1.1065,-1.1066,-1.1066,-1.107,-1.1069,-1.1068,-1.1062,-1.106,-1.1067,-1.1068,-1.1069,-1.1104,-1.1069,-1.107,-1.107,-1.114,-1.1142,-1.1143,0,0,0,0,0,0,-1.1066,-1.1068,-1.1081,-1.1074,-1.1075,-1.1068,-1.1072,-1.1071,-1.1074,-1.1069,-1.1068,-1.1066,-1.1066,-1.1067,-1.1087,-1.1104,-1.107,-1.1071,-1.1139,-1.1141,-1.1143,-1.1173,0,0,0,0,0,0,-1.1066,-1.1068,-1.1076,-1.1074,-1.1075,-1.1097,-1.1073,-1.1071,-1.1075,-1.1073,-1.1073,-1.1072,-1.1065,-1.1085,-1.1088,-1.1105,-1.1072,-1.1137,-1.114,-1.1142,-1.117,-1.1175,-1.118,0,0,0,0,0,-1.1065,-1.1084,-1.1077,-1.1079,-1.1086,-1.1098,-1.1099,-1.109,-1.1077,-1.1087,-1.1085,-1.1072,-1.1101,-1.1087,-1.109,-1.1108,-1.1136,-1.1139,-1.1142,-1.1168,-1.1174,-1.118,0,0,0,0,0,0,-1.1089,-1.1084,-1.1075,-1.1094,-1.1097,-1.1094,-1.1106,-1.1096,-1.1102,-1.11,-1.1089,-1.109,-1.1112,-1.1111,-1.1096,-1.1137,-1.1117,-1.112,-1.1136,-1.1142,-1.1147,-1.1147,-1.1073,0,0,0,0,0,-1.1097,-1.1105,-1.1101,-1.1118,-1.112,-1.1113,-1.1117,-1.111,-1.1113,-1.1114,-1.1113,-1.1117,-1.1127,-1.1134,-1.1143,-1.117,-1.1172,-1.1184,-1.1189,-1.1193,-1.1196,-1.1215,-1.1221,-1.1152,-1.1152,-1.1152,0,0,-1.1113,-1.1111,-1.1117,-1.1123,-1.1124,-1.1136,-1.1114,-1.1126,-1.1135,-1.1116,-1.1135,-1.1134,-1.1139,-1.1163,-1.1173,-1.1163,-1.1216,-1.1196,-1.1199,-1.1201,-1.1218,-1.1225,-1.1231,-1.1154,-1.1154,-1.1154,0,0,-1.1148,-1.1146,-1.1162,-1.1164,-1.1166,-1.1161,-1.1166,-1.1165,-1.1164,-1.1182,-1.117,-1.1182,-1.1199,-1.1203,-1.1208,-1.1249,-1.124,-1.1253,-1.1278,-1.1296,-1.1302,-1.1307,-1.1325,-1.1331,-1.1256,-1.1256,-1.1256,0,-1.1167,-1.1182,-1.1171,-1.1185,-1.119,-1.1174,-1.1192,-1.1195,-1.12,-1.1205,-1.1193,-1.1218,-1.1219,-1.1246,-1.1257,-1.126,-1.1267,-1.1253,-1.1302,-1.1306,-1.1311,-1.1328,-1.1335,-1.1258,-1.1258,-1.1257,-1.1257,0,-1.1208,-1.1219,-1.1232,-1.1238,-1.1245,-1.126,-1.1255,-1.1263,-1.1256,-1.1254,-1.1276,-1.1277,-1.1288,-1.1294,-1.1287,-1.1321,-1.1316,-1.1303,-1.1283,-1.1319,-1.1336,-1.1342,-1.126,-1.126,-1.1259,-1.1259,0,0,-1.1257,-1.1259,-1.1264,-1.1269,-1.1271,-1.1281,-1.1298,-1.1308,-1.1317,-1.1322,-1.1338,-1.1355,-1.1345,-1.135,-1.1344,-1.136,-1.1398,-1.1346,-1.1346,-1.1358,-1.1441,-1.1452,-1.1459,-1.1391,-1.1392,-1.1393,-1.1441,0,-1.1294,-1.1321,-1.1314,-1.1342,-1.1355,-1.1341,-1.1357,-1.1362,-1.1361,-1.1373,-1.1373,-1.1387,-1.137,-1.1374,-1.1389,-1.139,-1.1415,-1.1386,-1.1409,-1.141,-1.141,-1.1467,-1.1478,-1.1523,-1.1447,-1.1448,-1.1449,0,-1.1339,-1.1347,-1.1377,-1.1381,-1.1386,-1.14,-1.1411,-1.1422,-1.1429,-1.1428,-1.1436,-1.1428,-1.1448,-1.1428,-1.1458,-1.1439,-1.1448,-1.1451,-1.1452,-1.1456,-1.1433,-1.1474,-1.1537,-1.1545,-1.1458,-1.1457,-1.1457,0,-1.1376,-1.1393,-1.1415,-1.1418,-1.1423,-1.1434,-1.1437,-1.1442,-1.1451,-1.1461,-1.1467,-1.148,-1.1488,-1.15,-1.1497,-1.1482,-1.1529,-1.1507,-1.1532,-1.1532,-1.1543,-1.1543,-1.161,-1.1545,-1.1545,-1.1545,-1.1545,0,-1.1418,-1.1438,-1.1432,-1.1445,-1.1468,-1.146,-1.1484,-1.1486,-1.1492,-1.1507,-1.1496,-1.1512,-1.1506,-1.1522,-1.1521,-1.1548,-1.1551,-1.1553,-1.1553,-1.1555,-1.1555,-1.1562,-1.156,-1.1547,-1.1546,-1.1546,-1.1546,0,-1.1463,-1.1459,-1.1482,-1.1485,-1.1487,-1.1504,-1.1508,-1.1522,-1.1522,-1.1542,-1.1547,-1.1547,-1.1565,-1.1564,-1.1585,-1.1584,-1.1619,-1.1614,-1.1617,-1.1616,-1.1642,-1.1641,-1.1718,-1.1729,-1.1655,-1.1655,-1.1656,0,-1.1491,-1.1506,-1.1511,-1.1521,-1.1525,-1.1539,-1.1548,-1.1543,-1.1553,-1.1565,-1.1578,-1.1596,-1.161,-1.1641,-1.1645,-1.1662,-1.1659,-1.1685,-1.1662,-1.1665,-1.1663,-1.1663,-1.1667,-1.169,-1.1691,-1.1692,-1.1692,0,-1.1542,-1.1541,-1.1553,-1.1566,-1.1577,-1.1587,-1.1597,-1.1606,-1.1601,-1.1614,-1.1633,-1.1644,-1.1667,-1.1686,-1.1703,-1.1709,-1.1702,-1.17,-1.1707,-1.171,-1.1713,-1.1715,-1.1632,-1.1698,-1.1697,-1.1697,-1.1697,-1.1696,-1.1581,-1.1596,-1.1603,-1.1618,-1.1625,-1.1635,-1.165,-1.1652,-1.1667,-1.1685,-1.1681,-1.1704,-1.1715,-1.1737,-1.1745,-1.1765,-1.1756,-1.1765,-1.1768,-1.1771,-1.1775,-1.1708,-1.1767,-1.1767,-1.1767,-1.1767,-1.1767,0,-1.1635,-1.164,-1.1654,-1.1668,-1.1681,-1.1672,-1.1683,-1.1696,-1.1715,-1.1725,-1.174,-1.1764,-1.1784,-1.179,-1.181,-1.1825,-1.1823,-1.1831,-1.1831,-1.1834,-1.178,-1.1774,-1.1833,-1.1833,-1.1833,-1.1833,-1.1833,-1.1833,-1.1664,-1.1689,-1.1689,-1.1719,-1.1724,-1.1745,-1.1753,-1.1764,-1.1772,-1.18,-1.1816,-1.182,-1.183,-1.1851,-1.187,-1.1872,-1.1881,-1.1892,-1.1892,-1.1843,-1.1836,-1.183,-1.1824,-1.1893,-1.1893,-1.1944,-1.1944,-1.1945]},{"header":{"parameterUnit":"m.s-1","parameterCategory":1,"la1":30.2991,"la2":30.254,"lo1":-89.0895,"lo2":-89.0444,"dy":0.0017,"dx":0.0017,"nx":28,"ny":28,"refTime":"2023-09-26T03:00:00:Z","depth":0,"parameterNumber":3,"parameterNumberName":"V-component_of_WINDS"},"data":[0,0,0,0,0,0,0,0,0,0,0,0,0,0,0,0,0,0,0,0,0,0,0,0,0,0,0,0,0,0,0,0,0,0,0,0,0,0,0,0,0,0,0,0,0,0,0,0,0,0,0,0,0,0,0,0,0,0,1.9711,1.9712,0,1.9836,1.9837,1.9839,1.9897,1.9897,1.9896,1.9896,2.0022,2.0026,2.0029,0,0,0,0,0,0,0,0,0,0,0,0,0,1.9516,1.9519,1.9711,1.9712,1.9714,1.9836,1.9837,1.9839,1.9897,1.9897,1.9896,1.9896,2.0021,2.0025,2.0029,0,0,0,0,0,0,0,0,0,0,0,0,0,1.9617,1.952,1.971,1.9757,1.9763,1.9835,1.9838,1.984,1.9897,1.9897,1.9896,1.9896,2.002,2.0025,2.003,2.0065,0,0,2.0046,2.0048,0,0,0,0,0,0,0,0,1.9611,1.9624,1.9749,1.9754,1.976,1.9851,1.9815,1.9915,1.9897,1.9846,1.9896,1.9896,1.9965,1.9975,1.9999,2.0071,2.0076,2.0046,2.0049,2.0052,2.0053,0,0,0,0,0,0,0,1.9604,1.9619,1.976,1.975,1.9758,1.977,1.9784,1.9834,1.9905,1.985,1.9855,1.9869,1.9968,1.9993,2.0002,2.0078,2.0046,2.0051,2.0054,2.0056,2.018,2.018,0,0,0,0,0,0,1.959,1.9612,1.9756,1.9764,1.9684,1.9774,1.979,1.9822,1.9904,1.9917,1.9869,1.9871,1.9985,1.9996,2.0007,2.005,2.0052,2.0056,2.0059,2.018,2.018,2.018,0,0,0,0,0,0,1.9585,1.9602,1.9751,1.9689,1.9709,1.9777,1.9813,1.9824,1.985,1.9918,1.9931,1.9882,1.9985,1.9999,2.0049,2.0056,2.0059,2.0063,2.018,2.018,2.018,2.0139,0,0,0,0,0,0,1.9579,1.96,1.9616,1.9689,1.9712,1.9793,1.9813,1.9827,1.9859,1.9863,1.9934,1.9946,1.9986,2.0041,2.0054,2.0063,2.0068,2.0179,2.018,2.018,2.014,2.0138,2.0136,0,0,0,0,0,1.9572,1.96,1.9616,1.9633,1.9734,1.9794,1.9807,1.9853,1.9859,1.9874,1.9917,1.9943,2.0052,2.0046,2.0061,2.0071,2.0179,2.018,2.018,2.0141,2.0139,2.0136,0,0,0,0,0,0,1.9526,1.961,1.963,1.9682,1.973,1.9803,1.9824,1.9849,1.9896,1.9898,1.9953,1.9968,2.0012,2.0047,2.0038,2.0107,2.0118,2.0121,2.0083,2.0081,2.0079,2.007,2.0072,0,0,0,0,0,1.9521,1.9564,1.9635,1.9674,1.9697,1.9756,1.9784,1.9815,1.9867,1.9888,1.9935,1.9983,2.0028,2.0056,2.0102,2.0145,2.016,2.0159,2.0157,2.0155,2.0157,2.0179,2.0179,2.0182,2.0182,2.0182,0,0,1.9513,1.9565,1.9589,1.9666,1.9707,1.9748,1.9773,1.9817,1.9847,1.9894,1.9944,1.9979,2.0036,2.0082,2.0104,2.0112,2.0159,2.0155,2.0153,2.0157,2.0179,2.0179,2.0179,2.0182,2.0182,2.0182,0,0,1.9519,1.9563,1.9599,1.9639,1.97,1.9738,1.9746,1.9815,1.984,1.989,1.9925,1.9961,2.0038,2.0076,2.0106,2.012,2.0145,2.0133,2.0122,2.0143,2.0143,2.0143,2.0145,2.0146,2.0135,2.0135,2.0135,0,1.9501,1.9566,1.9614,1.9655,1.9686,1.973,1.9764,1.98,1.9873,1.9892,1.99,1.9994,2.0036,2.0089,2.0092,2.0116,2.0124,2.0126,2.0139,2.0139,2.014,2.0143,2.0144,2.0133,2.0133,2.0133,2.0134,0,1.9539,1.9583,1.9604,1.9672,1.9706,1.9743,1.9795,1.9823,1.985,1.9886,1.9934,1.9985,2.004,2.0054,2.0082,2.0111,2.0113,2.0129,2.0141,2.0137,2.0141,2.0143,2.013,2.0131,2.0132,2.0132,0,0,1.9522,1.9613,1.962,1.965,1.9718,1.9752,1.9789,1.9842,1.9864,1.9911,1.9942,2.0004,2.0017,2.0051,2.0082,2.01,2.0104,2.0113,2.0115,2.0108,2.0136,2.0123,2.0124,2.0121,2.0121,2.0122,2.013,0,1.9536,1.9607,1.9649,1.9701,1.974,1.978,1.9812,1.9855,1.9889,1.9926,1.9962,2.0004,2.0021,2.004,2.006,2.01,2.011,2.01,2.0148,2.0149,2.0132,2.0126,2.0114,2.012,2.0132,2.0133,2.0133,0,1.9564,1.9608,1.9664,1.9724,1.9742,1.977,1.982,1.9855,1.9904,1.9927,1.9961,1.9992,2.003,2.0038,2.009,2.0081,2.0103,2.0125,2.0126,2.0133,2.0141,2.0131,2.0123,2.0124,2.0136,2.0136,2.0136,0,1.9543,1.9617,1.9659,1.9684,1.9755,1.9774,1.9804,1.9853,1.9881,1.9923,1.9941,1.9988,2.0013,2.0047,2.0088,2.0091,2.0134,2.0147,2.0153,2.0151,2.0161,2.016,2.0155,2.0176,2.0176,2.0176,2.0176,0,1.9554,1.9586,1.9651,1.9677,1.9712,1.9759,1.9792,1.9826,1.9868,1.9899,1.9935,1.9964,2.0017,2.005,2.0082,2.0118,2.013,2.0148,2.0156,2.0144,2.0142,2.016,2.016,2.0176,2.0176,2.0176,2.0176,0,1.9538,1.9583,1.9631,1.9693,1.9709,1.9733,1.9785,1.981,1.9844,1.9883,1.9895,1.9948,1.9989,2.0033,2.009,2.0111,2.0145,2.0157,2.0128,2.0133,2.0135,2.0134,2.0142,2.0144,2.0163,2.0163,2.0163,0,1.9542,1.9567,1.9632,1.9655,1.9684,1.9722,1.975,1.9795,1.9822,1.9877,1.9894,1.9938,1.9976,2.0039,2.0081,2.0124,2.0136,2.0136,2.0143,2.0129,2.0134,2.0132,2.0133,2.0134,2.0133,2.0133,2.0133,0,1.9544,1.9563,1.9603,1.9648,1.968,1.9718,1.9757,1.9774,1.9826,1.9854,1.9896,1.9925,1.9981,2.0023,2.0069,2.0099,2.0123,2.013,2.0133,2.0121,2.0103,2.0111,2.0121,2.013,2.013,2.013,2.013,2.013,1.9537,1.956,1.9608,1.9649,1.9682,1.9717,1.9743,1.9779,1.9815,1.9864,1.9888,1.9929,1.9973,2.0038,2.0066,2.0097,2.0105,2.011,2.0112,2.0112,2.0108,2.0098,2.0106,2.0106,2.0106,2.0107,2.0107,0,1.9539,1.9571,1.9608,1.9661,1.9692,1.9712,1.9755,1.9779,1.9815,1.9854,1.9889,1.9936,1.9975,2.002,2.0061,2.0078,2.009,2.0087,2.0086,2.0092,2.01,2.0092,2.0076,2.0076,2.0076,2.0076,2.0076,2.0076,1.9544,1.9583,1.9607,1.9661,1.9692,1.9733,1.9756,1.9787,1.9818,1.9868,1.9901,1.9929,1.9969,2.0013,2.0049,2.0061,2.0074,2.0068,2.0082,2.0089,2.0092,2.0094,2.0087,2.007,2.007,2.0072,2.0072,2.0072]}]]